Weather in Vas'kovo

Russia / Smolensk Oblast     54°16′13″N   32°33′32″E
temp.,
°C
wind,
m/s
gust,
m/s
humid.,
%
clouds,
%
prec.,
mm/h
press.,
hPa
HPBL,
m
15 april, thu
thu1500:00+10n3583100 0.0 101683
03:00+9ne41093100 0.1 1015317
06:00+9nne51095100 0.5 1014261
09:00+10ene5987100 0.7 1014532
12:00+13e676795 0.0 10131038
15:00+13ne6875100 0.1 1013806
18:00+13e71071100 1.2 1012691
21:00+10e598897 2.3 1013364
16 april, fri
fri1600:00+10ene4892100 0.2 1013260
03:00+8e39955 0.5 1013193
06:00+9e6138992 0.3 1014390
09:00+11e7117952 0.3 1015770
12:00+14ese6105740 0.1 10161521
15:00+14e6862100 0.4 10161326
18:00+13e5868100 0.7 1016788
21:00+10e3687100 1.3 1017144
17 april, sat
sat1700:00+8e229053 0.3 101830
03:00+7e37955 0.3 1019160
06:00+6ene359571 0.0 1020105
09:00+10ene4684100 0.0 1021493
12:00+10ene5781100 0.2 1021767
15:00+11ne6982100 0.3 1021933
18:00+11ne51282100 0.4 1019696
21:00+12ne8157258 0.7 1019778
18 april, sun
sun1800:00+9ne71579100 0.0 1020531
03:00+7ne61282100 0.0 1020429
06:00+5ne5128221 0.0 1021372
09:00+8ene610695 0.0 1021541
12:00+12ene686139 0.0 10221003
15:00+13ene785310 0.0 10221327
18:00+13ene595859 0.0 10221565
21:00+9ene247363 0.1 102395
19 april, mon
mon1900:00+8ese2580100 0.1 1024219
03:00+7ene37835 0.1 1025178
06:00+5ene39895 0.0 1025224
09:00+9e59695 0.0 1025679
12:00+12e685038 0.0 10241869
15:00+11e6858100 0.1 10241335
18:00+11e5862100 0.0 10241095
21:00+9e51068100 0.0 1024670